Location: Adaghas
(31.2259°N, 9.0496°W)
Time: 03:45:15
(UTC+00:00)

Delta 128 - Pass Details

Date: 18 September 2020
Orbit: 608 x 1216 km, 28.0° (Epoch: 23 October)

Event Time Altitude Azimuth Distance (km) Brightness Sun altitude
Rises 20:28:02 0° 270° (W) 3,029 8.3 -24.1°
Reaches altitude 10° 20:30:35 10° 264° (W) 2,049 7.1 -24.6°
Enters shadow 20:34:35 44° 211° (SSW) 859 4.3 -25.4°
